DW5683 Weather Reports


Display with metric or nautical units.
time (UTC)temp
F
wind
direction
speed
MPH
gust
MPH
rain 1hr
in
rain 24hr
in
rain mn
in
humidity
%
barometer
mb
20260508081541 60 0 0.0 0.0 0.00 0.00 0.00 88 1015.6
20260508080041 60 0 0.0 0.0 0.00 0.00 0.00 87 1015.4
20260508074538 61 0 0.0 0.0 0.00 0.00 0.00 87 1015.2
20260508073037 61 0 0.0 0.0 0.00 0.00 0.00 86 1015.2
20260508071538 62 0 0.0 0.0 0.00 0.00 0.00 86 1015.2
20260508070035 63 0 0.0 0.0 0.00 0.00 0.00 85 1015.1
20260508064601 64 0 0.0 0.0 0.00 0.00 0.00 85 1015.1
20260508063040 64 0 0.0 0.0 0.00 0.00 0.00 85 1015.1
20260508061542 65 0 0.0 0.0 0.00 0.00 0.00 83 1015.2
20260508060037 65 0 0.0 1.0 0.00 0.00 0.00 85 1015.1
20260508054539 65 0 0.0 0.0 0.00 0.00 0.00 85 1015.1
20260508053035 66 0 0.0 0.0 0.00 0.00 0.00 84 1015.0
20260508051536 66 0 0.0 0.0 0.00 0.00 0.00 83 1014.9
20260508050044 67 0 0.0 0.0 0.00 0.00 0.00 81 1015.0
20260508044537 69 0 0.0 0.0 0.00 0.00 0.00 78 1014.8
20260508043037 70 0 0.0 0.0 0.00 0.00 0.00 77 1014.8
20260508041536 70 0 0.0 0.0 0.00 0.00 0.00 76 1014.6
20260508040037 70 0 0.0 0.0 0.00 0.00 0.00 76 1014.3
20260508034538 72 0 0.0 0.0 0.00 0.00 0.00 75 1014.2
20260508033042 74 0 0.0 0.0 0.00 0.00 0.00 72 1014.1
20260508031537 76 0 0.0 0.0 0.00 0.00 0.00 70 1013.9
20260508030037 78 0 0.0 0.0 0.00 0.00 0.00 65 1013.8
20260508024541 80 0 0.0 0.0 0.00 0.00 0.00 62 1013.7
20260508023037 80 0 0.0 0.0 0.00 0.00 0.00 57 1013.6
20260508021537 81 0 0.0 0.0 0.00 0.00 0.00 55 1013.6
20260508020041 82 0 0.0 2.0 0.00 0.00 0.00 53 1013.7
20260508014538 82 0 0.0 3.0 0.00 0.00 0.00 55 1013.7
20260508013037 81 223 0.0 6.0 0.00 0.00 0.00 55 1013.7
20260508011548 82 0 0.0 3.0 0.00 0.00 0.00 55 1013.7
20260508010044 82 0 0.0 3.0 0.00 0.00 0.00 54 1013.8
20260508004553 82 0 2.0 4.0 0.00 0.00 0.00 54 1013.9
20260508003042 83 0 0.0 6.0 0.00 0.00 0.00 54 1014.1
20260508001541 83 0 2.0 7.0 0.00 0.00 0.00 55 1014.1
20260508000038 82 0 0.0 6.0 0.00 0.00 0.00 54 1014.1
20260507234539 83 0 0.0 4.0 0.00 0.00 0.00 52 1014.0
20260507233038 83 225 1.0 5.0 0.00 0.00 0.00 53 1014.2
20260507231540 83 0 0.0 4.0 0.00 0.00 0.00 56 1014.4
20260507230038 83 0 0.0 4.0 0.00 0.00 0.00 53 1014.5
20260507224539 82 225 2.0 5.0 0.00 0.00 0.00 54 1014.6
20260507223034 81 0 0.0 3.0 0.00 0.00 0.00 55 1015.0
20260507221539 82 225 0.0 6.0 0.00 0.00 0.00 56 1015.3
20260507220039 82 225 1.0 5.0 0.00 0.00 0.00 55 1015.3
20260507214537 82 227 1.0 6.0 0.00 0.00 0.00 57 1015.5
20260507213037 81 225 2.0 6.0 0.00 0.00 0.00 57 1015.8
20260507211535 80 0 0.0 4.0 0.00 0.00 0.00 57 1016.0
20260507210039 80 220 1.0 3.0 0.00 0.00 0.00 59 1016.1
20260507204555 80 0 0.0 4.0 0.00 0.00 0.00 58 1016.4
20260507203036 79 219 1.0 5.0 0.00 0.00 0.00 59 1016.7
20260507201540 78 222 1.0 5.0 0.00 0.00 0.00 59 1017.0
20260507200040 78 0 1.0 6.0 0.00 0.00 0.00 61 1017.0
20260507194543 78 217 1.0 4.0 0.00 0.00 0.00 61 1017.2
20260507193034 78 217 0.0 5.0 0.00 0.00 0.00 59 1017.3
20260507191538 78 0 0.0 5.0 0.00 0.00 0.00 61 1017.5
20260507190043 78 215 0.0 5.0 0.00 0.00 0.00 61 1017.6
20260507184539 77 0 1.0 6.0 0.00 0.00 0.00 61 1017.8
20260507183041 77 212 0.0 5.0 0.00 0.00 0.00 62 1017.8
20260507181535 77 0 0.0 3.0 0.00 0.00 0.00 62 1017.8
20260507180034 76 200 0.0 4.0 0.00 0.00 0.00 64 1017.8
20260507174540 75 196 0.0 5.0 0.00 0.00 0.00 63 1017.8
20260507173037 74 192 0.0 3.0 0.00 0.00 0.00 68 1017.9
20260507171536 73 192 0.0 2.0 0.00 0.00 0.00 67 1017.8
20260507170036 73 192 0.0 2.0 0.00 0.00 0.00 67 1017.9
20260507164537 72 0 0.0 3.0 0.00 0.00 0.00 68 1018.0
20260507163038 71 0 0.0 2.0 0.00 0.00 0.00 70 1018.0
20260507161539 69 0 0.0 2.0 0.00 0.00 0.00 74 1018.0
20260507160039 68 0 0.0 2.0 0.00 0.00 0.00 74 1018.1
20260507154541 67 192 0.0 2.0 0.00 0.00 0.00 77 1018.3
20260507153045 65 0 0.0 3.0 0.00 0.00 0.00 81 1018.1
20260507151534 63 0 0.0 2.0 0.00 0.00 0.00 85 1018.2
20260507150033 61 0 0.0 3.0 0.00 0.00 0.00 92 1018.2
20260507144537 59 0 0.0 0.0 0.00 0.00 0.00 93 1018.2
20260507143038 57 0 0.0 0.0 0.00 0.00 0.00 93 1018.0
20260507141536 54 0 0.0 0.0 0.00 0.00 0.00 93 1018.0
20260507140048 53 0 0.0 0.0 0.00 0.00 0.00 93 1017.8
20260507134535 53 0 0.0 0.0 0.00 0.00 0.00 92 1017.6
20260507133039 53 0 0.0 0.0 0.00 0.00 0.00 92 1017.6
20260507131538 53 0 0.0 0.0 0.00 0.00 0.00 92 1017.5
20260507130048 53 0 0.0 0.0 0.00 0.00 0.00 93 1017.5
20260507124543 53 0 0.0 0.0 0.00 0.00 0.00 92 1017.5
20260507123047 53 0 0.0 0.0 0.00 0.00 0.00 92 1017.5
20260507121541 53 0 0.0 0.0 0.00 0.00 0.00 92 1017.4
20260507120045 53 0 0.0 0.0 0.00 0.00 0.00 92 1017.4
20260507114543 54 0 0.0 0.0 0.00 0.00 0.00 92 1017.4
20260507113039 54 0 0.0 0.0 0.00 0.00 0.00 92 1017.4
20260507111538 54 0 0.0 0.0 0.00 0.00 0.00 92 1017.4
20260507110038 54 0 0.0 0.0 0.00 0.00 0.00 92 1017.4
20260507104534 54 0 0.0 0.0 0.00 0.00 0.00 92 1017.3
20260507103039 54 0 0.0 0.0 0.00 0.00 0.00 92 1017.4
20260507101545 54 0 0.0 0.0 0.00 0.00 0.00 92 1017.4
20260507100038 54 0 0.0 0.0 0.00 0.00 0.00 92 1017.4
20260507094537 54 0 0.0 0.0 0.00 0.00 0.00 92 1017.5
20260507093039 55 0 0.0 0.0 0.00 0.00 0.00 92 1017.6
20260507091542 55 0 0.0 0.0 0.00 0.00 0.00 91 1017.4
20260507090042 55 0 0.0 0.0 0.00 0.00 0.00 92 1017.6
20260507084538 55 0 0.0 0.0 0.00 0.00 0.00 91 1017.5
20260507083046 56 0 0.0 0.0 0.00 0.00 0.00 91 1017.7